Date,TemperatureHighF,TemperatureAvgF,TemperatureLowF,DewpointHighF,DewpointAvgF,DewpointLowF,HumidityHigh,HumidityAvg,HumidityLow,PressureMaxIn,PressureMinIn,WindSpeedMaxMPH,WindSpeedAvgMPH,GustSpeedMaxMPH,PrecipitationSumIn
2013-3-1,49.5,41.4,34.8,36.0,33.1,31.0,85,73,56,32.06,31.94,9,2,16,0.00
2013-3-2,51.7,43.2,36.3,36.0,31.4,29.0,91,64,42,31.95,31.47,13,4,16,0.07
2013-3-3,38.2,30.3,24.9,35.0,17.3,-99.9,92,68,42,31.77,31.34,24,-36,32,0.05
2013-3-4,33.9,22.7,18.8,22.0,0.5,-99.9,91,57,40,32.05,31.77,10,-124,13,0.02
2013-3-5,37.6,18.6,18.8,20.0,-35.6,-99.9,75,28,40,31.90,31.53,15,-451,16,0.00
2013-3-6,43.1,33.3,26.1,33.0,26.1,18.0,92,76,55,31.52,31.28,12,3,19,0.03
2013-3-7,41.0,34.1,29.7,30.0,23.6,19.0,93,68,44,31.69,31.44,11,4,16,0.05
2013-3-8,41.8,28.8,24.5,24.0,5.8,-99.9,80,54,34,31.70,31.56,12,-114,17,0.00
2013-3-9,42.8,33.7,28.3,24.0,20.9,19.0,73,60,46,32.06,31.70,15,3,21,0.01
2013-3-10,45.0,30.1,28.6,28.0,4.1,-99.9,81,52,35,32.08,31.80,16,-145,24,0.00
2013-3-11,43.1,36.3,32.9,28.0,19.7,-99.9,83,55,32,31.86,31.78,22,-6,28,0.00
2013-3-12,46.8,37.7,31.0,33.0,24.0,-99.9,77,60,49,31.87,31.69,10,-9,18,0.00
2013-3-13,55.5,42.9,41.1,34.0,16.8,-99.9,73,47,31,31.76,31.68,13,-96,19,0.00
2013-3-14,60.7,48.9,40.4,35.0,29.7,27.0,63,49,33,31.71,31.45,16,3,19,0.00
2013-3-15,52.2,45.7,40.0,35.0,31.0,28.0,68,57,40,31.59,31.48,19,6,23,0.00
2013-3-16,44.2,39.1,33.6,31.0,26.4,-99.9,90,65,49,31.59,31.24,13,-18,20,0.01
2013-3-17,35.0,28.7,24.2,32.0,20.8,15.0,91,73,50,31.70,31.19,20,8,29,0.00
2013-3-18,35.7,27.3,24.0,24.0,19.5,12.0,92,74,44,31.81,31.64,21,8,24,0.00
2013-3-19,41.3,25.9,21.7,23.0,-5.2,-99.9,92,48,42,32.00,31.67,11,-207,17,0.14
2013-3-20,53.1,37.5,30.5,38.0,27.7,18.0,92,69,45,31.66,31.06,26,10,40,0.06
2013-3-21,33.2,27.6,23.4,27.0,19.7,14.0,91,73,55,31.69,31.33,17,5,24,0.00
2013-3-22,29.9,23.4,21.1,22.0,16.6,-99.9,92,80,67,31.94,31.68,9,-19,17,0.06
2013-3-23,30.1,19.5,18.4,20.0,-0.8,-99.9,91,67,54,32.08,31.95,9,-154,14,0.03
2013-3-24,35.8,17.9,17.7,19.0,-27.6,-99.9,88,37,31,32.13,31.90,8,-358,13,0.01
2013-3-25,42.8,25.8,19.3,20.0,-9.7,-99.9,70,40,38,31.93,31.66,9,-208,12,0.00
2013-3-26,50.8,40.2,32.0,28.0,23.4,20.0,69,53,37,31.66,31.50,11,2,14,0.00
2013-3-27,51.4,41.2,33.0,34.0,27.6,23.0,71,59,42,31.61,31.50,12,2,22,0.00
2013-3-28,53.0,42.8,35.7,39.0,34.3,31.0,85,73,51,31.65,31.56,14,2,15,0.00
2013-3-29,51.1,43.0,38.0,39.0,35.1,31.0,91,75,49,31.79,31.66,8,1,15,0.02
2013-3-30,55.3,44.8,37.3,36.0,29.0,-99.9,82,59,34,31.89,31.68,12,-8,18,0.00
2013-3-31,60.0,47.6,35.4,34.0,28.7,26.0,69,50,32,31.70,31.46,12,3,16,0.00